TimeCST,TemperatureF,Dew PointF,Humidity,Sea Level PressureIn,VisibilityMPH,Wind Direction,Wind SpeedMPH,Gust SpeedMPH,PrecipitationIn,Events,Conditions,WindDirDegrees,DateUTC
12:15 AM,41.0,37.4,87,30.22,10.0,Calm,Calm,-,N/A,,Clear,0,2013-11-03 05:15:00
12:35 AM,41.0,37.4,87,30.22,10.0,Calm,Calm,-,N/A,,Clear,0,2013-11-03 05:35:00
12:55 AM,42.8,37.4,81,30.23,10.0,Calm,Calm,-,N/A,,Clear,0,2013-11-03 05:55:00
1:15 AM,42.8,37.4,81,30.23,10.0,Calm,Calm,-,N/A,,Clear,0,2013-11-03 06:15:00
1:35 AM,41.0,37.4,87,30.22,10.0,Calm,Calm,-,N/A,,Clear,0,2013-11-03 06:35:00
1:55 AM,41.0,37.4,87,30.22,10.0,Calm,Calm,-,N/A,,Clear,0,2013-11-03 06:55:00
1:15 AM,39.2,35.6,87,30.22,3.0,Calm,Calm,-,N/A,,Clear,0,2013-11-03 07:15:00
1:35 AM,39.2,37.4,93,30.23,5.0,Calm,Calm,-,N/A,,Clear,0,2013-11-03 07:35:00
1:55 AM,41.0,37.4,87,30.23,10.0,Calm,Calm,-,N/A,,Clear,0,2013-11-03 07:55:00
2:15 AM,39.2,37.4,93,30.22,5.0,Calm,Calm,-,N/A,,Clear,0,2013-11-03 08:15:00
2:35 AM,37.4,35.6,93,30.22,7.0,Calm,Calm,-,N/A,,Clear,0,2013-11-03 08:35:00
2:55 AM,37.4,35.6,93,30.22,10.0,Calm,Calm,-,N/A,,Clear,0,2013-11-03 08:55:00
3:15 AM,39.2,37.4,93,30.21,10.0,Calm,Calm,-,N/A,,Clear,0,2013-11-03 09:15:00
3:35 AM,37.4,35.6,93,30.21,10.0,Calm,Calm,-,N/A,,Clear,0,2013-11-03 09:35:00
3:55 AM,37.4,35.6,93,30.21,10.0,Calm,Calm,-,N/A,,Clear,0,2013-11-03 09:55:00
4:15 AM,37.4,35.6,93,30.21,10.0,Calm,Calm,-,N/A,,Clear,0,2013-11-03 10:15:00
4:35 AM,37.4,35.6,93,30.21,10.0,Calm,Calm,-,N/A,,Clear,0,2013-11-03 10:35:00
4:55 AM,37.4,35.6,93,30.21,10.0,Calm,Calm,-,N/A,,Clear,0,2013-11-03 10:55:00
5:15 AM,35.6,35.6,100,30.20,10.0,Calm,Calm,-,N/A,,Clear,0,2013-11-03 11:15:00
5:35 AM,39.2,37.4,93,30.21,10.0,Calm,Calm,-,N/A,,Clear,0,2013-11-03 11:35:00
5:55 AM,37.4,33.8,87,30.21,10.0,Calm,Calm,-,N/A,,Clear,0,2013-11-03 11:55:00
6:15 AM,37.4,35.6,93,30.21,10.0,Calm,Calm,-,N/A,,Clear,0,2013-11-03 12:15:00
6:35 AM,37.4,35.6,93,30.22,10.0,Calm,Calm,-,N/A,,Clear,0,2013-11-03 12:35:00
6:55 AM,37.4,35.6,93,30.22,10.0,Calm,Calm,-,N/A,,Clear,0,2013-11-03 12:55:00
7:15 AM,37.4,35.6,93,30.22,10.0,Calm,Calm,-,N/A,,Clear,0,2013-11-03 13:15:00
7:35 AM,41.0,37.4,87,30.22,10.0,Calm,Calm,-,N/A,,Clear,0,2013-11-03 13:35:00
7:55 AM,44.6,41.0,87,30.23,10.0,Calm,Calm,-,N/A,,Clear,0,2013-11-03 13:55:00
8:15 AM,46.4,41.0,81,30.24,10.0,SE,5.8,-,N/A,,Clear,140,2013-11-03 14:15:00
8:35 AM,48.2,41.0,76,30.24,10.0,SE,5.8,-,N/A,,Clear,130,2013-11-03 14:35:00
8:55 AM,50.0,41.0,71,30.24,10.0,SE,6.9,-,N/A,,Clear,140,2013-11-03 14:55:00
9:15 AM,53.6,42.8,67,30.23,10.0,SE,8.1,-,N/A,,Clear,140,2013-11-03 15:15:00
9:35 AM,55.4,39.2,54,30.23,10.0,SE,11.5,-,N/A,,Clear,140,2013-11-03 15:35:00
9:55 AM,59.0,39.2,48,30.22,10.0,SSE,10.4,-,N/A,,Clear,150,2013-11-03 15:55:00
10:15 AM,59.0,37.4,45,30.22,10.0,SSE,9.2,-,N/A,,Clear,150,2013-11-03 16:15:00
10:35 AM,59.0,37.4,45,30.21,10.0,SSE,11.5,-,N/A,,Clear,160,2013-11-03 16:35:00
10:55 AM,60.8,39.2,45,30.20,10.0,SSE,11.5,-,N/A,,Clear,150,2013-11-03 16:55:00
11:15 AM,60.8,37.4,42,30.18,10.0,SE,13.8,18.4,N/A,,Clear,140,2013-11-03 17:15:00
11:35 AM,62.6,37.4,39,30.16,10.0,SSE,12.7,17.3,N/A,,Clear,160,2013-11-03 17:35:00
11:55 AM,62.6,37.4,39,30.16,10.0,SSE,11.5,17.3,N/A,,Clear,160,2013-11-03 17:55:00
12:15 PM,62.6,35.6,37,30.16,10.0,South,8.1,-,N/A,,Clear,170,2013-11-03 18:15:00
12:35 PM,64.4,35.6,34,30.15,10.0,SSE,9.2,17.3,N/A,,Clear,150,2013-11-03 18:35:00
12:55 PM,64.4,37.4,37,30.13,10.0,SE,12.7,-,N/A,,Clear,140,2013-11-03 18:55:00
1:15 PM,64.4,37.4,37,30.11,10.0,SSE,10.4,-,N/A,,Clear,160,2013-11-03 19:15:00
1:35 PM,64.4,37.4,37,30.10,10.0,South,10.4,-,N/A,,Clear,170,2013-11-03 19:35:00
1:55 PM,64.4,37.4,37,30.10,10.0,SSE,8.1,-,N/A,,Clear,150,2013-11-03 19:55:00
2:15 PM,64.4,37.4,37,30.09,10.0,SE,12.7,-,N/A,,Clear,140,2013-11-03 20:15:00
2:35 PM,64.4,39.2,40,30.09,10.0,SSE,11.5,16.1,N/A,,Clear,150,2013-11-03 20:35:00
2:55 PM,64.4,37.4,37,30.08,10.0,SSE,12.7,-,N/A,,Clear,150,2013-11-03 20:55:00
3:15 PM,64.4,37.4,37,30.08,10.0,SSE,15.0,-,N/A,,Clear,150,2013-11-03 21:15:00
3:35 PM,62.6,37.4,39,30.08,10.0,SSE,13.8,-,N/A,,Clear,150,2013-11-03 21:35:00
3:55 PM,62.6,39.2,42,30.08,10.0,SSE,11.5,-,N/A,,Clear,150,2013-11-03 21:55:00
4:15 PM,60.8,39.2,45,30.07,10.0,SE,9.2,-,N/A,,Clear,140,2013-11-03 22:15:00
4:35 PM,60.8,41.0,48,30.07,10.0,SE,8.1,-,N/A,,Clear,140,2013-11-03 22:35:00
4:55 PM,60.8,41.0,48,30.06,10.0,SE,8.1,-,N/A,,Clear,130,2013-11-03 22:55:00
5:15 PM,60.8,41.0,48,30.05,10.0,SE,8.1,-,N/A,,Clear,130,2013-11-03 23:15:00
5:35 PM,59.0,41.0,51,30.06,10.0,SE,8.1,-,N/A,,Clear,140,2013-11-03 23:35:00
5:55 PM,59.0,41.0,51,30.07,10.0,SE,6.9,-,N/A,,Clear,130,2013-11-03 23:55:00
6:15 PM,59.0,41.0,51,30.05,10.0,ESE,8.1,-,N/A,,Clear,120,2013-11-04 00:15:00
6:35 PM,59.0,41.0,51,30.05,10.0,SE,9.2,-,N/A,,Clear,130,2013-11-04 00:35:00
6:55 PM,59.0,41.0,51,30.07,10.0,SE,6.9,-,N/A,,Clear,140,2013-11-04 00:55:00
7:15 PM,59.0,42.8,55,30.08,10.0,SE,8.1,-,N/A,,Clear,140,2013-11-04 01:15:00
7:35 PM,59.0,42.8,55,30.09,10.0,SSE,8.1,-,N/A,,Clear,150,2013-11-04 01:35:00
7:55 PM,57.2,42.8,59,30.09,10.0,SE,6.9,-,N/A,,Clear,140,2013-11-04 01:55:00
8:15 PM,55.4,42.8,63,30.08,10.0,SE,5.8,-,N/A,,Clear,130,2013-11-04 02:15:00
8:35 PM,55.4,42.8,63,30.08,10.0,SE,9.2,-,N/A,,Clear,140,2013-11-04 02:35:00
8:55 PM,57.2,42.8,59,30.07,10.0,SE,11.5,-,N/A,,Clear,130,2013-11-04 02:55:00
9:15 PM,57.2,42.8,59,30.06,10.0,SE,13.8,18.4,N/A,,Clear,140,2013-11-04 03:15:00
9:35 PM,57.2,42.8,59,30.07,10.0,SSE,16.1,-,N/A,,Clear,150,2013-11-04 03:35:00
9:55 PM,57.2,42.8,59,30.06,10.0,SE,13.8,-,N/A,,Clear,140,2013-11-04 03:55:00
10:15 PM,57.2,41.0,55,30.05,10.0,SE,16.1,20.7,N/A,,Clear,140,2013-11-04 04:15:00
10:35 PM,57.2,41.0,55,30.03,10.0,SE,15.0,20.7,N/A,,Clear,140,2013-11-04 04:35:00
10:55 PM,57.2,41.0,55,30.04,10.0,SSE,12.7,-,N/A,,Clear,150,2013-11-04 04:55:00